Find Starlink 1454

NORAD ID: 45671 Int'l Des: 2020-035 Owner: SPXS Country: US Constellation: starlink operational
LEOCIRCULAR

リアルタイム位置

3D地球を読み込み中...

Starlink 1454について

説明を読み込み中...

次回通過

Passes for default location (London). Set your location on the main map for personalized predictions.

高度履歴

Loading altitude history...

軌道要素

1 45671U 20035Q 26127.29339937 .00097047 00000-0 10695-2 0 9996
2 45671 53.0440 128.6928 0004483 350.5011 9.5917 15.62347439328043
Epoch: May 7, 2026 • Age: 6 hours

現在のステータス

高度 398.7 km
速度 7.67 km/s
衛星直下点 -51.51°S, 38.87°W
打ち上げ日 Jun 4, 2020
運用期間 5.9 years
タイプ internet

技術仕様

分類 Payload
質量 260.00 kg
乾燥質量 248.00 kg
総質量 260.00 kg
長さ 0.20 m
直径 2.80 m
スパン 9.00 m
形状 Box + pan
製造者 SPXS
バスタイプ Starlink
フェーズステータス In Orbit
所有者/国 SPXS/US

Most Searched